TimeMST,TemperatureF,Dew PointF,Humidity,Sea Level PressureIn,VisibilityMPH,Wind Direction,Wind SpeedMPH,Gust SpeedMPH,PrecipitationIn,Events,Conditions,WindDirDegrees,DateUTC
5:00 AM,34,19,41,29.95,15,West,20.7,,,,Scattered Clouds,260,2012-11-14 12:00:00
5:00 AM,33.8,19.4,56,29.95,15.0,West,19.6,27.6,N/A,,Scattered Clouds,260,2012-11-14 12:00:00
6:00 AM,35.6,17.6,48,29.96,15.0,West,16.1,-,N/A,,Scattered Clouds,270,2012-11-14 13:00:00
7:00 AM,32.0,19.4,60,29.98,15.0,West,19.6,-,N/A,,Scattered Clouds,260,2012-11-14 14:00:00
8:00 AM,28.4,17.6,64,30.02,30.0,West,16.1,-,N/A,,Mostly Cloudy,260,2012-11-14 15:00:00
9:00 AM,30.2,17.6,60,30.03,30.0,West,12.7,-,N/A,,Scattered Clouds,260,2012-11-14 16:00:00
10:00 AM,28.4,17.6,64,30.06,30.0,NW,8.1,-,N/A,,Scattered Clouds,310,2012-11-14 17:00:00
11:00 AM,34,19,41,30.08,28,NW,4.6,,,,Scattered Clouds,310,2012-11-14 18:00:00
11:00 AM,33.8,19.4,56,30.08,30.0,NW,4.6,-,N/A,,Mostly Cloudy,310,2012-11-14 18:00:00
12:00 PM,41.0,21.2,45,30.08,30.0,West,9.2,-,N/A,,Scattered Clouds,270,2012-11-14 19:00:00
1:00 PM,41.0,21.2,45,30.08,30.0,West,10.4,-,N/A,,Partly Cloudy,270,2012-11-14 20:00:00
2:00 PM,39.2,19.4,45,30.11,30.0,West,10.4,-,N/A,,Scattered Clouds,280,2012-11-14 21:00:00
3:00 PM,39.2,19.4,45,30.13,30.0,West,6.9,-,N/A,,Scattered Clouds,260,2012-11-14 22:00:00
3:39 PM,35.6,21.2,56,30.14,30.0,South,9.2,-,N/A,,Scattered Clouds,180,2012-11-14 22:39:00
4:00 PM,33.8,21.2,60,30.16,30.0,SW,8.1,-,N/A,,Scattered Clouds,220,2012-11-14 23:00:00
5:00 PM,29,22,65,30.17,28,SSE,11.5,,,,Scattered Clouds,160,2012-11-15 00:00:00
5:00 PM,28.4,21.2,74,30.17,30.0,South,11.5,-,N/A,,Scattered Clouds,170,2012-11-15 00:00:00
6:00 PM,24.8,19.4,80,30.18,15.0,SSE,3.5,-,N/A,,Partly Cloudy,160,2012-11-15 01:00:00
7:00 PM,21.2,17.6,86,30.21,15.0,South,9.2,-,N/A,,Clear,170,2012-11-15 02:00:00
8:00 PM,19.4,15.8,86,30.23,15.0,South,6.9,-,N/A,,Clear,170,2012-11-15 03:00:00
9:00 PM,23.0,17.6,80,30.22,15.0,SSW,4.6,-,N/A,,Clear,200,2012-11-15 04:00:00
10:00 PM,19.4,12.2,74,30.06,15.0,NW,4.6,-,N/A,,Clear,310,2012-11-15 05:00:00